(°C)
-2°
-2°
-2°
-2°
-1°
(°C)
-6°
-6°
-6°
-6°
-5°
-5°
-4°
O
OSO
OSO
SO
SSO
SSO
SO
(km/h)
7-12
7-10
7-10
8-10
9-12
10-15
14-17
(mm)
0
0
0
0
0
0
0
(%)
0
0
0
0
0
0
0

Elevação do sol

/ -28.5°
sun-icon
UV 1
07:24
17:22
Minguante gibosa (244°)
20:13
13:34

METAR para 53.5°N 50.15°L (UWWW)

Hora Condições Temperatura/
Ponto de condensação
Vento Visibilidade Tempo Nuvens Pressão Mudança Bruto
VFR -2°C / -5°C 280º 6kt >10km - Clouds and Visibility OK 1027 No Significant change UWWW 260000Z 28003MPS CAVOK M02/M05 Q1027 R33/CLRD60 NOSIG RMK QFE759/1012
VFR -2°C / -4°C 290º 4kt >10km - Clouds and Visibility OK 1027 No Significant change UWWW 252330Z 29002MPS CAVOK M02/M04 Q1027 R33/CLRD60 NOSIG RMK QFE759/1012
VFR -2°C / -4°C 290º 6kt >10km - Clouds and Visibility OK 1027 No Significant change UWWW 252300Z 29003MPS CAVOK M02/M04 Q1027 R33/CLRD60 NOSIG RMK QFE759/1012
VFR -2°C / -4°C 290º 6kt >10km - Clouds and Visibility OK 1027 No Significant change UWWW 252230Z 29003MPS CAVOK M02/M04 Q1027 R33/CLRD60 NOSIG RMK QFE759/1012
VFR -3°C / -5°C 270º variable 240º to 310º 6kt >10km - Clouds and Visibility OK 1026 No Significant change UWWW 252200Z 27003MPS 240V310 CAVOK M03/M05 Q1026 R33/CLRD60 NOSIG RMK QFE759/1012
VFR -4°C / -6°C 240º 4kt >10km - Clouds and Visibility OK 1026 No Significant change UWWW 252130Z 24002MPS CAVOK M04/M06 Q1026 R33/CLRD60 NOSIG RMK QFE759/1012
VFR -2°C / -5°C 290º variable 250º to 320º 6kt >10km - Clouds and Visibility OK 1026 No Significant change UWWW 252100Z 29003MPS 250V320 CAVOK M02/M05 Q1026 R33/CLRD60 NOSIG RMK QFE758/1011
VFR -1°C / -5°C 300º 8kt >10km - Clouds and Visibility OK 1025 No Significant change UWWW 252030Z 30004MPS CAVOK M01/M05 Q1025 R33/CLRD60 NOSIG RMK QFE758/1011
VFR -1°C / -4°C 300º 8kt >10km - Clouds and Visibility OK 1025 No Significant change UWWW 252000Z 30004MPS CAVOK M01/M04 Q1025 R33/CLRD60 NOSIG RMK QFE758/1011
VFR -1°C / -5°C 320º 10kt >10km - Clouds and Visibility OK 1025 No Significant change UWWW 251930Z 32005MPS CAVOK M01/M05 Q1025 R33/CLRD60 NOSIG RMK QFE758/1011
VFR 0°C / -4°C 330º 12kt >10km - Few Clouds 3300ft 1025 No Significant change UWWW 251900Z 33006MPS 9999 FEW033 00/M04 Q1025 R33/CLRD60 NOSIG RMK QFE758/1010
VFR 0°C / -4°C 330º 12kt >10km - Scattered Clouds 2600ft 1024 No Significant change UWWW 251830Z 33006MPS 9999 SCT026 00/M04 Q1024 R33/CLRD60 NOSIG RMK QFE758/1010
VFR 1°C / -5°C 330º 8kt >10km - Scattered Clouds 2600ft 1024 No Significant change UWWW 251800Z 33004MPS 9999 SCT026 01/M05 Q1024 R33/CLRD60 NOSIG RMK QFE757/1010
MVFR 1°C / -5°C 350º 10kt >10km - Broken Clouds 3000ft 1024 No Significant change UWWW 251730Z 35005MPS 9999 BKN030 01/M05 Q1024 R33/CLRD60 NOSIG RMK QFE757/1010
MVFR 1°C / -5°C 330º 10kt >10km - Broken Clouds 2700ft 1024 No Significant change UWWW 251700Z 33005MPS 9999 BKN027 01/M05 Q1024 R33/CLRD60 NOSIG RMK QFE757/1010
MVFR 2°C / -5°C 350º variable 320º to 020º 14kt >10km - Broken Clouds 2800ft 1023 No Significant change. Runway 33: Damp, 51-100% contamination with <1mm, friction coefficient 0.55. UWWW 251630Z 35007MPS 320V020 9999 BKN028 02/M05 Q1023 R33/190055 NOSIG RMK QFE757/1009
MVFR 2°C / -4°C 330º variable 300º to 360º 10kt Gust 19kt >10km - Broken Clouds 2300ft 1023 No Significant change. Runway 33: Damp, 51-100% contamination with <1mm, friction coefficient 0.55. UWWW 251600Z 33005G10MPS 300V360 9999 BKN023 02/M04 Q1023 R33/190055 NOSIG RMK QFE756/1009
MVFR 2°C / -4°C 350º 14kt >10km - Broken Clouds 2100ft 1022 No Significant change. Runway 33: Damp, 51-100% contamination with <1mm, friction coefficient 0.55. UWWW 251530Z 35007MPS 9999 BKN021 02/M04 Q1022 R33/190055 NOSIG RMK QFE756/1008
MVFR 2°C / -4°C 340º 16kt >10km - Broken Clouds 2100ft 1022 No Significant change. Runway 33: Damp, 51-100% contamination with <1mm, friction coefficient 0.55. UWWW 251500Z 34008MPS 9999 BKN021 02/M04 Q1022 R33/190055 NOSIG RMK QFE756/1008
MVFR 2°C / -3°C 340º 16kt >10km - Broken Clouds 1800ft 1021 No Significant change. Runway 33: Damp, 51-100% contamination with <1mm, friction coefficient 0.55. UWWW 251430Z 34008MPS 9999 BKN018 02/M03 Q1021 R33/190055 NOSIG RMK QFE755/1007
MVFR 2°C / -2°C 330º 19kt >10km - Broken Clouds 1600ft 1021 No Significant change. Runway 33: Damp, 51-100% contamination with <1mm, friction coefficient 0.55. UWWW 251400Z 33010MPS 9999 BKN016 02/M02 Q1021 R33/190055 NOSIG RMK QFE755/1006
MVFR 3°C / -1°C 330º 17kt. Wind Shear present on Runway 33. >10km - Broken Clouds 1300ft 1020 No Significant change. Runway 33: Damp, 51-100% contamination with <1mm, friction coefficient 0.55. UWWW 251330Z 33009MPS 9999 BKN013 03/M01 Q1020 WS R33 R33/190055 NOSIG RMK QFE754/1006
MVFR 3°C / 0°C 330º 21kt >10km - Broken Clouds 1300ft 1019 No Significant change. Runway 33: Damp, 51-100% contamination with <1mm, friction coefficient 0.55. UWWW 251300Z 33011MPS 9999 BKN013 03/M00 Q1019 R33/190055 NOSIG RMK QFE754/1005
MVFR 4°C / 0°C 330º 19kt >10km - Broken Clouds 1500ft 1019 No Significant change. Runway 33: Wet or puddles, 51-100% contamination with 1mm, friction coefficient 0.50. UWWW 251230Z 33010MPS 9999 BKN015 04/M00 Q1019 R33/290150 NOSIG RMK QFE753/1004

VFR

-2°C / -5°C

[Mais]
Vento 280º 6kt
Visibilidade >10km
Tempo -
Nuvens Clouds and Visibility OK
Pressão 1027
Mudança No Significant change
Bruto UWWW 260000Z 28003MPS CAVOK M02/M05 Q1027 R33/CLRD60 NOSIG RMK QFE759/1012

VFR

-2°C / -4°C

[Mais]
Vento 290º 4kt
Visibilidade >10km
Tempo -
Nuvens Clouds and Visibility OK
Pressão 1027
Mudança No Significant change
Bruto UWWW 252330Z 29002MPS CAVOK M02/M04 Q1027 R33/CLRD60 NOSIG RMK QFE759/1012

VFR

-2°C / -4°C

[Mais]
Vento 290º 6kt
Visibilidade >10km
Tempo -
Nuvens Clouds and Visibility OK
Pressão 1027
Mudança No Significant change
Bruto UWWW 252300Z 29003MPS CAVOK M02/M04 Q1027 R33/CLRD60 NOSIG RMK QFE759/1012

VFR

-2°C / -4°C

[Mais]
Vento 290º 6kt
Visibilidade >10km
Tempo -
Nuvens Clouds and Visibility OK
Pressão 1027
Mudança No Significant change
Bruto UWWW 252230Z 29003MPS CAVOK M02/M04 Q1027 R33/CLRD60 NOSIG RMK QFE759/1012

VFR

-3°C / -5°C

[Mais]
Vento 270º variable 240º to 310º 6kt
Visibilidade >10km
Tempo -
Nuvens Clouds and Visibility OK
Pressão 1026
Mudança No Significant change
Bruto UWWW 252200Z 27003MPS 240V310 CAVOK M03/M05 Q1026 R33/CLRD60 NOSIG RMK QFE759/1012

VFR

-4°C / -6°C

[Mais]
Vento 240º 4kt
Visibilidade >10km
Tempo -
Nuvens Clouds and Visibility OK
Pressão 1026
Mudança No Significant change
Bruto UWWW 252130Z 24002MPS CAVOK M04/M06 Q1026 R33/CLRD60 NOSIG RMK QFE759/1012

VFR

-2°C / -5°C

[Mais]
Vento 290º variable 250º to 320º 6kt
Visibilidade >10km
Tempo -
Nuvens Clouds and Visibility OK
Pressão 1026
Mudança No Significant change
Bruto UWWW 252100Z 29003MPS 250V320 CAVOK M02/M05 Q1026 R33/CLRD60 NOSIG RMK QFE758/1011

VFR

-1°C / -5°C

[Mais]
Vento 300º 8kt
Visibilidade >10km
Tempo -
Nuvens Clouds and Visibility OK
Pressão 1025
Mudança No Significant change
Bruto UWWW 252030Z 30004MPS CAVOK M01/M05 Q1025 R33/CLRD60 NOSIG RMK QFE758/1011

VFR

-1°C / -4°C

[Mais]
Vento 300º 8kt
Visibilidade >10km
Tempo -
Nuvens Clouds and Visibility OK
Pressão 1025
Mudança No Significant change
Bruto UWWW 252000Z 30004MPS CAVOK M01/M04 Q1025 R33/CLRD60 NOSIG RMK QFE758/1011

VFR

-1°C / -5°C

[Mais]
Vento 320º 10kt
Visibilidade >10km
Tempo -
Nuvens Clouds and Visibility OK
Pressão 1025
Mudança No Significant change
Bruto UWWW 251930Z 32005MPS CAVOK M01/M05 Q1025 R33/CLRD60 NOSIG RMK QFE758/1011

VFR

0°C / -4°C

[Mais]
Vento 330º 12kt
Visibilidade >10km
Tempo -
Nuvens Few Clouds 3300ft
Pressão 1025
Mudança No Significant change
Bruto UWWW 251900Z 33006MPS 9999 FEW033 00/M04 Q1025 R33/CLRD60 NOSIG RMK QFE758/1010

VFR

0°C / -4°C

[Mais]
Vento 330º 12kt
Visibilidade >10km
Tempo -
Nuvens Scattered Clouds 2600ft
Pressão 1024
Mudança No Significant change
Bruto UWWW 251830Z 33006MPS 9999 SCT026 00/M04 Q1024 R33/CLRD60 NOSIG RMK QFE758/1010

VFR

1°C / -5°C

[Mais]
Vento 330º 8kt
Visibilidade >10km
Tempo -
Nuvens Scattered Clouds 2600ft
Pressão 1024
Mudança No Significant change
Bruto UWWW 251800Z 33004MPS 9999 SCT026 01/M05 Q1024 R33/CLRD60 NOSIG RMK QFE757/1010

MVFR

1°C / -5°C

[Mais]
Vento 350º 10kt
Visibilidade >10km
Tempo -
Nuvens Broken Clouds 3000ft
Pressão 1024
Mudança No Significant change
Bruto UWWW 251730Z 35005MPS 9999 BKN030 01/M05 Q1024 R33/CLRD60 NOSIG RMK QFE757/1010

MVFR

1°C / -5°C

[Mais]
Vento 330º 10kt
Visibilidade >10km
Tempo -
Nuvens Broken Clouds 2700ft
Pressão 1024
Mudança No Significant change
Bruto UWWW 251700Z 33005MPS 9999 BKN027 01/M05 Q1024 R33/CLRD60 NOSIG RMK QFE757/1010

MVFR

2°C / -5°C

[Mais]
Vento 350º variable 320º to 020º 14kt
Visibilidade >10km
Tempo -
Nuvens Broken Clouds 2800ft
Pressão 1023
Mudança No Significant change. Runway 33: Damp, 51-100% contamination with <1mm, friction coefficient 0.55.
Bruto UWWW 251630Z 35007MPS 320V020 9999 BKN028 02/M05 Q1023 R33/190055 NOSIG RMK QFE757/1009

MVFR

2°C / -4°C

[Mais]
Vento 330º variable 300º to 360º 10kt Gust 19kt
Visibilidade >10km
Tempo -
Nuvens Broken Clouds 2300ft
Pressão 1023
Mudança No Significant change. Runway 33: Damp, 51-100% contamination with <1mm, friction coefficient 0.55.
Bruto UWWW 251600Z 33005G10MPS 300V360 9999 BKN023 02/M04 Q1023 R33/190055 NOSIG RMK QFE756/1009

MVFR

2°C / -4°C

[Mais]
Vento 350º 14kt
Visibilidade >10km
Tempo -
Nuvens Broken Clouds 2100ft
Pressão 1022
Mudança No Significant change. Runway 33: Damp, 51-100% contamination with <1mm, friction coefficient 0.55.
Bruto UWWW 251530Z 35007MPS 9999 BKN021 02/M04 Q1022 R33/190055 NOSIG RMK QFE756/1008

MVFR

2°C / -4°C

[Mais]
Vento 340º 16kt
Visibilidade >10km
Tempo -
Nuvens Broken Clouds 2100ft
Pressão 1022
Mudança No Significant change. Runway 33: Damp, 51-100% contamination with <1mm, friction coefficient 0.55.
Bruto UWWW 251500Z 34008MPS 9999 BKN021 02/M04 Q1022 R33/190055 NOSIG RMK QFE756/1008

MVFR

2°C / -3°C

[Mais]
Vento 340º 16kt
Visibilidade >10km
Tempo -
Nuvens Broken Clouds 1800ft
Pressão 1021
Mudança No Significant change. Runway 33: Damp, 51-100% contamination with <1mm, friction coefficient 0.55.
Bruto UWWW 251430Z 34008MPS 9999 BKN018 02/M03 Q1021 R33/190055 NOSIG RMK QFE755/1007

MVFR

2°C / -2°C

[Mais]
Vento 330º 19kt
Visibilidade >10km
Tempo -
Nuvens Broken Clouds 1600ft
Pressão 1021
Mudança No Significant change. Runway 33: Damp, 51-100% contamination with <1mm, friction coefficient 0.55.
Bruto UWWW 251400Z 33010MPS 9999 BKN016 02/M02 Q1021 R33/190055 NOSIG RMK QFE755/1006

MVFR

3°C / -1°C

[Mais]
Vento 330º 17kt. Wind Shear present on Runway 33.
Visibilidade >10km
Tempo -
Nuvens Broken Clouds 1300ft
Pressão 1020
Mudança No Significant change. Runway 33: Damp, 51-100% contamination with <1mm, friction coefficient 0.55.
Bruto UWWW 251330Z 33009MPS 9999 BKN013 03/M01 Q1020 WS R33 R33/190055 NOSIG RMK QFE754/1006

MVFR

3°C / 0°C

[Mais]
Vento 330º 21kt
Visibilidade >10km
Tempo -
Nuvens Broken Clouds 1300ft
Pressão 1019
Mudança No Significant change. Runway 33: Damp, 51-100% contamination with <1mm, friction coefficient 0.55.
Bruto UWWW 251300Z 33011MPS 9999 BKN013 03/M00 Q1019 R33/190055 NOSIG RMK QFE754/1005

MVFR

4°C / 0°C

[Mais]
Vento 330º 19kt
Visibilidade >10km
Tempo -
Nuvens Broken Clouds 1500ft
Pressão 1019
Mudança No Significant change. Runway 33: Wet or puddles, 51-100% contamination with 1mm, friction coefficient 0.50.
Bruto UWWW 251230Z 33010MPS 9999 BKN015 04/M00 Q1019 R33/290150 NOSIG RMK QFE753/1004

TAF para 53.5°N 50.15°L (UWWW)

From till


Maximum Temperature 3ºC on . Minimum Temperature -2ºC on .
From till Wind 270º 6kt. Gust 17kt. Visibility 6000m. Broken Clouds 1600ft.
Temporarly from till Visibility 305.775m. freezing Fog . Obscured Sky.
Temporarly from till Wind 230º 17kt. Gust 29kt.
Becoming from till Wind 230º 6kt. Gust 17kt. Visibility 6000m. Broken Clouds 1600ft.

Bruto: TAF UWWW 252253Z 2600/2624 27003G09MPS 6000 BKN016 TX03/2611Z TNM02/2603Z TEMPO 2600/2605 0300 FZFG VV002 TEMPO 2605/2616 23009G15MPS BECMG 2616/2618 23003G09MPS

Imagens atuais de satélite e precipitação para 53.5°N 50.15°L

O marcador de lugar é colocado em 53.5°N 50.15°L. [Mais]

A imagem de satélite em tempo real combina luz visível durante o dia com radiação infravermelha durante a noite. À noite, a imagem não é escura, pois a radiação infravermelha pode detectar diferenças de temperatura. Infelizmente, nuvens baixas e neblina são difíceis de distinguir das temperaturas do solo e, portanto, podem ser quase invisíveis durante a noite. As imagens de satélite Meteosat para a Europa são atualizadas em tempo real a cada 5 minutos. GOES-16/GOES-17 ( América do Norte e do Sul) e Himawari (Ásia) são atualizadas a cada 10 minutos.

Copyright 2021 EUMETSAT / meteoblue. / Copyright 2021 meteoblue

Radar e precipitação nowcast para 53.5°N 50.15°L

Chuvisco
Leve
Moderado
Forte
Muito forte
Granizo

O marcador do lugar é colocado em 53.5°N 50.15°L. Esta animação mostra o radar de precipitação para a última hora, assim como a 1h previsão. A queda de neve pode ser invisível para o radar. A intensidade da precipitação é codificada por cores, variando do azul claro ao laranja.